Main page
METAR-TAF:

METAR-TAF

Airports :

Araxá Airport

Araxá, Minas Gerais, Brazil

latitude: 19-33-38S, longitude: 046-57-56W, elevation: 999 m

Current weather observation

The report was made 1 hour and 5 minutes ago, at 21:00 UTC
Wind 3 kt from the Northwest
Temperature 26°C
Humidity 61%
Pressure 1012 hPa
Visibility 10 km or more
Scattered clouds at a height of 2500 ft
Scattered clouds at a height of 4500 ft

METAR: SBAX 212100Z 31003KT 9999 SCT025 SCT045 26/18 Q1012

Time: 20:05 (22:05 UTC)


TAF: missing

Weather observations and forecasts of more than 4000 airports (METAR and TAF reports).

The available stations are represented by yellow and red dots on the map.

Hover mouse over dot to see the name of the station.

Then click to see weather observations and forecasts.

To change the map : click on the green buttons with a black cross to zoom in, on the green button with a dash to zoom out, or on the green arrows for adjacent maps.


METAR-TAF: